Regional Weather Roundup
Issued by NWS Upton, NY

Home | Current Version | Previous Version | Text Only | Print | Product List | Glossary On
Versions: 1 2 3 4 5 6 7 8 9 10 11 12 13 14 15 16 17 18 19 20 21 22 23 24 25 26 27 28 29 30 31 32 33 34 35 36 37 38 39 40 41 42 43 44 45 46 47 48 49 50
945
ASUS41 KOKX 221005
RWROKX

Regional Weather Roundup
National Weather Service New York NY
500 AM EST THU FEB 22 2018

Note: "FAIR" indicates few or no clouds below 12,000 feet with no
significant weather and/or obstructions to visibility.

NYZ071-072-176-178-NJZ106-104-221100-
New York City Metro Area

CITY           SKY/WX    TMP DP  RH WIND       PRES   REMARKS
Central Park   CLOUDY    48  37  65 N8        30.57R
Bronx Bot Gard   N/A     46  36  66 NW3       30.56R
Bronx Lehman C   N/A     45  37  76 N10         N/A
LaGuardia Arpt CLOUDY    49  36  61 N9        30.53R
Queens College   N/A     48  32  53 N10G22      N/A
Kennedy Intl   CLOUDY    49  36  61 N14       30.53R
Breezy Point     N/A     50 N/A N/A N9          N/A
Brooklyn Coll    N/A     50  36  57 N14         N/A
Staten Island    N/A     48  37  66 N10         N/A
Newark/Liberty LGT RAIN  49  37  63 N18       30.54R
Teterboro      LGT RAIN  46  37  71 N14G28    30.55R
$$

NYZ177-179-078>081-221100-
Long Island New York

CITY           SKY/WX    TMP DP  RH WIND       PRES   REMARKS
Jones Beach      N/A     48 N/A N/A N16         N/A
Wantagh          N/A     50  37  62 N9          N/A
Hempstead        N/A     50  37  62 NW3       30.56R
Matinecock Pt    N/A     43 N/A N/A N13         N/A
Farmingdale    CLOUDY    48  38  68 N13       30.52R
MacArthur/ISP  CLOUDY    48  37  65 N12       30.51R
Shirley        LGT RAIN  48  38  68 N14G22    30.51R
Mt Sinai Harb    N/A     43 N/A N/A CALM        N/A
Westhampton    CLOUDY    49  40  71 N13       30.51R
East Hampton   CLOUDY    47  42  80 N8        30.51R
Southold         N/A     45  39  81 N13         N/A
Montauk        NOT AVBL
$$

NYZ052-065-067-221100-
Hudson Valley

CITY           SKY/WX    TMP DP  RH WIND       PRES   REMARKS
White Plains   LGT RAIN  42  38  85 N10       30.54R
Larchmont Harb   N/A     45 N/A N/A N14         N/A
Croton On Huds   N/A     43 N/A N/A NE2         N/A
Somers           N/A     41  36  81 NE2         N/A
Brewster         N/A     39  34  81 N6          N/A  WCI  35
Newburgh       CLOUDY    43  34  70 NE12G21   30.57R
Montgomery     CLOUDY    43  31  62 NE14      30.54R
Otisville        N/A     43  34  70 E5          N/A
Warwick          N/A     43  32  65 E8          N/A
Suffern          N/A     41  36  81 NE5         N/A
Poughkeepsie   CLOUDY    43  30  60 N12       30.57R
Albany         CLOUDY    38  27  64 N6        30.60R WCI  33
$$

NJZ001-105-106-008-010-013-015-019>022-104-221100-
New Jersey

CITY           SKY/WX    TMP DP  RH WIND       PRES   REMARKS
Newark/Liberty LGT RAIN  49  37  63 N18       30.54R
Teterboro      LGT RAIN  46  37  71 N14G28    30.55R
Caldwell       RAIN      42  40  92 NE6       30.56R FOG
Somerville     CLOUDY    47  39  74 N7        30.49S
Linden         CLOUDY    50  35  56 NE13      30.53R
Perth Amboy      N/A     50 N/A N/A NE14G20     N/A
Sussex         CLOUDY    45  35  68 NE5       30.54R
Andover          N/A     42  40  92 N3        30.52R
Trenton        CLOUDY    50  36  58 NE9       30.48R
Millville      CLOUDY    57  45  64 NE8       30.44R
Atlantic City  CLOUDY    58  51  78 NE8       30.46R
Wrightstown    CLOUDY    53  40  61 NE9       30.46R
Toms River     CLOUDY    57  45  64 NE9       30.50R
Belmar         CLOUDY    54  34  46 N12       30.52R
$$

PAZ047>061-062-071-221100-
Eastern Pennsylvania

CITY           SKY/WX    TMP DP  RH WIND       PRES   REMARKS
Philadelphia   CLOUDY    53  33  46 NE15G21   30.47S
Allentown      CLOUDY    45  37  73 NE7       30.52R
Scranton       CLOUDY    39  33  79 NE8       30.51F WCI  33
$$

CTZ002-004>006-009-010-012-RIZ004-006-007-MAZ004-011-015-221100-
Southern New England

 In CT

CITY           SKY/WX    TMP DP  RH WIND       PRES   REMARKS
Bradley Intl   CLOUDY    44  25  47 N12       30.55R
Hartford       LGT RAIN  46  36  68 NE8       30.55R
Danbury        LGT RAIN  42  36  79 N6        30.56R
Wtrbury/Oxford LGT RAIN  41  37  86 N7        30.53R
Norwalk Harbor   N/A     45 N/A N/A N12         N/A
Bridgeport     LGT RAIN  47  34  60 N14       30.53R
Meriden        LGT RAIN  45  37  73 N7        30.54R
New Haven      CLOUDY    47  36  65 N10       30.53R
Chester        LGT RAIN  46  37  71 N6G13     30.53R
Groton         LGT RAIN  49  38  65 N10       30.52R
Willimantic    CLOUDY    49  26  41 N6        30.56R

 In RI

CITY           SKY/WX    TMP DP  RH WIND       PRES   REMARKS
Providence     LGT RAIN  48  24  39 N10       30.54R
Block Island   LGT RAIN  46  43  89 NE8       30.51R
Westerly       LGT RAIN  50  42  74 N8        30.52R

In MA

CITY           SKY/WX    TMP DP  RH WIND       PRES   REMARKS
Boston         CLOUDY    44  24  45 N12       30.56R
Worcester      CLOUDY    40  32  73 N7        30.53R
Westfield      CLOUDY    43  20  39 NE8       30.56R
Provincetown   CLOUDY    42  34  73 NE13      30.56R
Nantucket      CLOUDY    44  39  82 NE16      30.50R
$$

ANZ330-335-338-340-345-350-353-355-221100-
Coastal Marine Observations


STATION/POSITION TIME  SKY/WX   TEMP    WIND        PRES    VSBY  WAVE
                                AIR SEA DIR/SP/G                  HT/PER
                 (UTC)          (F)     (DEG/KT/KT) (MB)    (MI)  (FT/S)
NY Harb Entrance 0950            46 43  360/ 10/ 14 1033.1          3/16
20 S Fire Island 0950            46 43  360/ 14/ 17 1032.3          3/15
15 E Barnegat Li 0930               42                N/A           3/ 6
Hudson Canyon    0850            50 47   20/  8/ 10 1029.9          4/ 6
Kings Point      0936            44 39   50/ 13/ 15 1034.8
Execution Rocks  NOT AVBL
Western LI Sound NOT AVBL
Central LI Sound 0930            43     340/  8/ 10   N/A           1
Robbins Reef     0936            49     360/ 14/ 17 1033.7
$$


>>>>>>>>>>>>>>>>>>>>>>>>>>>> KEY <<<<<<<<<<<<<<<<<<<<<<<<<<<
>                                                          <
>     SKY/WX - Sky Condition/Present Weather               <
>     TMP    - Temperature in Fahrenheit                   <
>     DP     - Dew Point in Fahrenheit                     <
>     RH     - Relative Humidity in Percent                <
>     WIND   - Direction (from) and Speed in MPH           <
>     PRES   - Mean Sea Level Pressure (inches of Hg)      <
>     WCI    - Wind Chill Index                            <
>     VSB    - Visibility in Miles                         <
>     HX     - Heat Index                                  <
>     TC     - Temperature in Celsius                      <
>     VRB    - Varibale Wind Direction                     <
>                                                          <
>>>>>>>>>>>>>>>>>>>>>>>>>>>> KEY <<<<<<<<<<<<<<<<<<<<<<<<<<<




USA.gov is the U.S. government's official web portal to all federal, state and local government web resources and services.